CW3081 Weather Reports


Display with metric or nautical units.
time (UTC)temp
F
wind
direction
speed
MPH
gust
MPH
rain 1hr
in
rain 24hr
in
rain mn
in
humidity
%
barometer
mb
20260905213106 93 4 0.0 1.0 0.00 0.00 0.00 57 1011.5
20260905211602 93 4 0.0 0.0 0.00 0.00 0.00 55 1011.5
20260905210058 93 0 0.0 1.0 0.00 0.00 0.00 58 1011.8
20260905204550 94 0 0.0 1.0 0.00 0.00 0.00 58 1012.0
20260905203104 94 4 0.0 1.0 0.00 0.00 0.00 58 1012.1
20260905201615 94 359 0.0 2.0 0.00 0.00 0.00 56 1012.3
20260905200054 95 254 1.0 2.0 0.00 0.00 0.00 56 1012.5
20260905194600 95 245 0.0 2.0 0.00 0.00 0.00 56 1012.8
20260905193112 95 0 0.0 1.0 0.00 0.00 0.00 59 1012.8
20260905191556 95 0 0.0 2.0 0.00 0.00 0.00 57 1013.0
20260905190054 96 103 1.0 4.0 0.00 0.00 0.00 55 1013.3
20260905184555 95 51 1.0 2.0 0.00 0.00 0.00 56 1013.6
20260905183050 95 7 0.0 2.0 0.00 0.00 0.00 56 1013.7
20260905181608 95 0 0.0 2.0 0.00 0.00 0.00 56 1013.8
20260905180052 93 0 1.0 2.0 0.00 0.00 0.00 58 1014.1
20260905174556 93 0 0.0 2.0 0.00 0.00 0.00 61 1014.2
20260905173053 93 341 0.0 2.0 0.00 0.00 0.00 60 1014.2
20260905171557 91 0 0.0 2.0 0.00 0.00 0.00 64 1014.4
20260905170051 91 0 0.0 2.0 0.00 0.00 0.00 65 1014.4
20260905164603 90 0 0.0 0.0 0.00 0.00 0.00 69 1014.6
20260905163049 88 0 0.0 0.0 0.00 0.00 0.00 72 1014.9
20260905161603 87 0 0.0 0.0 0.00 0.00 0.00 72 1014.8
20260905160052 86 0 0.0 0.0 0.00 0.00 0.00 76 1015.0
20260905154559 85 0 0.0 0.0 0.00 0.00 0.00 81 1015.1
20260905153051 83 0 0.0 0.0 0.00 0.00 0.00 82 1015.3
20260905151602 82 0 0.0 0.0 0.00 0.00 0.00 82 1015.4
20260905150051 82 0 0.0 0.0 0.00 0.00 0.00 84 1015.4
20260905144549 80 0 0.0 0.0 0.00 0.00 0.00 86 1015.5
20260905143049 0 0.0 0.0 0.00 0.00 0.00 1015.4
20260905141558 0 0.0 0.0 0.00 0.00 0.00 1015.4
20260905140050 0 0.0 0.0 0.00 0.00 0.00 1015.3
20260905134552 0 0.0 0.0 0.00 0.00 0.00 1015.3
20260905133055 0 0.0 0.0 0.00 0.00 0.00 1015.3
20260905131607 0 0.0 0.0 0.00 0.00 0.00 1015.4
20260905130051 0 0.0 0.0 0.00 0.00 0.00 1015.3
20260905124551 0 0.0 0.0 0.00 0.00 0.00 1015.3
20260905123100 0 0.0 0.0 0.00 0.00 0.00 1015.3
20260905121551 0 0.0 0.0 0.00 0.00 0.00 1015.2
20260905120049 0 0.0 0.0 0.00 0.00 0.00 1015.1
20260905114600 0 0.0 0.0 0.00 0.00 0.00 1014.7
20260905113055 0 0.0 0.0 0.00 0.00 0.00 1014.6
20260905111603 0 0.0 0.0 0.00 0.00 0.00 1014.4
20260905110056 0 0.0 0.0 0.00 0.00 0.00 1014.3
20260905104613 0 0.0 0.0 0.00 0.00 0.00 1014.2
20260905103053 0 0.0 0.0 0.00 0.00 0.00 1013.9
20260905101602 0 0.0 0.0 0.00 0.00 0.00 1014.0
20260905100107 72 0 0.0 0.0 0.00 0.00 0.00 95 1013.8
20260905094602 72 0 0.0 0.0 0.00 0.00 0.00 95 1013.8
20260905093055 72 0 0.0 0.0 0.00 0.00 0.00 95 1013.8
20260905091608 73 0 0.0 0.0 0.00 0.00 0.00 95 1013.9
20260905090059 73 0 0.0 0.0 0.00 0.00 0.00 95 1013.9
20260905084607 73 0 0.0 0.0 0.00 0.00 0.00 95 1013.9
20260905083053 73 0 0.0 0.0 0.00 0.00 0.00 94 1014.0
20260905081550 73 0 0.0 0.0 0.00 0.00 0.00 94 1013.9
20260905080049 73 0 0.0 0.0 0.00 0.00 0.00 94 1014.0
20260905074616 73 0 0.0 0.0 0.00 0.00 0.00 94 1013.9
20260905073053 73 0 0.0 0.0 0.00 0.00 0.00 94 1014.1
20260905071550 73 0 0.0 0.0 0.00 0.00 0.00 94 1014.2
20260905070106 73 0 0.0 0.0 0.00 0.00 0.00 93 1014.1
20260905064556 74 0 0.0 0.0 0.00 0.00 0.00 93 1014.1
20260905063052 74 0 0.0 0.0 0.00 0.00 0.00 92 1014.0
20260905061600 74 0 0.0 0.0 0.00 0.00 0.00 93 1014.0
20260905060051 74 0 0.0 0.0 0.00 0.00 0.00 93 1013.9
20260905054603 74 0 0.0 0.0 0.00 0.00 0.00 92 1014.0
20260905053052 74 0 0.0 0.0 0.00 0.00 0.00 92 1014.1
20260905051551 74 0 0.0 0.0 0.00 0.00 0.00 92 1014.2
20260905050051 74 0 0.0 0.0 0.00 0.00 0.00 91 1014.1
20260905044557 75 0 0.0 0.0 0.00 0.00 0.00 90 1014.3
20260905043053 75 0 0.0 0.0 0.00 0.00 0.00 90 1014.4
20260905041556 76 0 0.0 0.0 0.00 0.00 0.00 89 1014.5
20260905040053 76 0 0.0 0.0 0.00 0.00 0.00 88 1014.6
20260905034556 76 0 0.0 0.0 0.00 0.00 0.00 87 1014.6
20260905033054 76 0 0.0 0.0 0.00 0.00 0.00 87 1014.6
20260905031551 77 0 0.0 0.0 0.00 0.00 0.00 86 1014.7
20260905030049 77 0 0.0 0.0 0.00 0.00 0.00 86 1014.9
20260905024600 77 0 0.0 0.0 0.00 0.00 0.00 84 1015.1
20260905023054 77 0 0.0 0.0 0.00 0.00 0.00 84 1015.0
20260905021550 78 0 0.0 0.0 0.00 0.00 0.00 83 1014.9
20260905014558 78 0 0.0 0.0 0.00 0.00 0.00 83 1015.0
20260905013055 78 0 0.0 0.0 0.00 0.00 0.00 82 1014.8
20260905011554 79 0 0.0 1.0 0.00 0.00 0.00 81 1014.7
20260905010104 80 0 0.0 0.0 0.00 0.00 0.00 80 1014.6
20260905004551 81 0 0.0 0.0 0.00 0.00 0.00 77 1014.3
20260905003055 82 0 0.0 0.0 0.00 0.00 0.00 76 1014.3
20260905001551 82 0 0.0 0.0 0.00 0.00 0.00 73 1014.2
20260904234600 86 0 0.0 0.0 0.00 0.00 0.00 66 1014.0
20260904233054 87 0 0.0 1.0 0.00 0.00 0.00 61 1014.0
20260904231551 88 139 0.0 2.0 0.00 0.00 0.00 60 1014.3
20260904230057 90 188 0.0 2.0 0.00 0.00 0.00 59 1014.4
20260904224605 92 0 0.0 2.0 0.00 0.00 0.00 60 1014.3
20260904223055 92 0 0.0 0.0 0.00 0.00 0.00 65 1013.9
20260904221600 92 0 0.0 0.0 0.00 0.00 0.00 63 1013.8
20260904220100 93 0 0.0 0.0 0.00 0.00 0.00 61 1013.6
20260904214558 93 0 0.0 1.0 0.00 0.00 0.00 61 1013.9